Regional Weather Roundup
Issued by NWS Upton, NY

Current Version | Previous Version | Text Only | Print | Product List | Glossary On
Versions: 1 2 3 4 5 6 7 8 9 10 11 12 13 14 15 16 17 18 19 20 21 22 23 24 25 26 27
000
ASUS41 KOKX 231608
RWROKX

REGIONAL WEATHER ROUNDUP
NATIONAL WEATHER SERVICE NEW YORK NY
1100 AM EST MON JAN 23 2017

NOTE: "FAIR" INDICATES FEW OR NO CLOUDS BELOW 12,000 FEET WITH NO
SIGNIFICANT WEATHER AND/OR OBSTRUCTIONS TO VISIBILITY.

NYZ071-072-176-178-NJZ106-104-231700-
NEW YORK CITY METRO AREA

CITY           SKY/WX    TMP DP  RH WIND       PRES   REMARKS
Central Park   CLOUDY    40  30  67 NE21G32   29.86R WCI  30
Wall St Helipt   N/A    -78 -78 100 NE26      29.84R WCI-129
LaGuardia APRT CLOUDY    42  30  62 E24G38    29.86R
Kennedy INTL   CLOUDY    42  33  70 NE26G38   29.85R
Breezy Point     N/A     39 N/A N/A E21G32      N/A  WCI  29
Newark/Liberty CLOUDY    41  30  65 NE28G38   29.83S
Teterboro      CLOUDY    41  29  62 NE20G35   29.83S
$$

NYZ177-179-078>081-231700-
LONG ISLAND NEW YORK

CITY           SKY/WX    TMP DP  RH WIND       PRES   REMARKS
Jones Beach      N/A     39 N/A N/A NE32G40     N/A  WCI  27
Matinecock PT  NOT AVBL
Farmingdale    CLOUDY    41  31  67 E22G31    29.85R
MacArthur/ISP  LGT RAIN  40  32  73 NE24G35   29.85R WCI  29
Shirley        CLOUDY    39  32  76 NE14G26   29.86F WCI  31
Westhampton    CLOUDY    39  32  76 NE23G33   29.86F WCI  28
Southampton    NOT AVBL
Bridgehampton  NOT AVBL
East Hampton   CLOUDY    38  33  84 E14G32    29.88F HAZE    WCI  29
Montauk          N/A     40  33  76 NE16G39   29.91S WCI  31
$$

NYZ052-065-067-231700-
HUDSON VALLEY

CITY           SKY/WX    TMP DP  RH WIND       PRES   REMARKS
White Plains   CLOUDY    40  28  62 E18G33    29.85R WCI  31
Newburgh       CLOUDY    37  30  75 E21G29    29.89R WCI  27
Montgomery     CLOUDY    39  29  67 NE15G25   29.88R WCI  31
Poughkeepsie   CLOUDY    38  27  64 NE8G21    29.91R WCI  32
Albany         CLOUDY    38  25  59 NE14      29.96F WCI  30
$$

NJZ001-105-106-008-010-013-015-019>022-104-231700-
NEW JERSEY

CITY           SKY/WX    TMP DP  RH WIND       PRES   REMARKS
Newark/Liberty CLOUDY    41  30  65 NE28G38   29.83S
Teterboro      CLOUDY    41  29  62 NE20G35   29.83S
Caldwell       CLOUDY    41  28  60 E24G35    29.83S
Somerville     CLOUDY    40  30  67 E15G28    29.78F WCI  32
Linden         CLOUDY    40  31  68 E20G28    29.84R WCI  31
Sussex         CLOUDY    39  31  72 NE22G29   29.83S WCI  29
Andover          N/A     38  29  70 NE8G21    29.82R WCI  32
Trenton        CLOUDY    38  35  89 E25G37    29.71F WCI  27
Millville      LGT RAIN  43  42  97 E26G41    29.58F FOG
Atlantic City  LGT RAIN  43  40  89 NE35G48   29.61F FOG
Wrightstown    CLOUDY    39  37  93 NE26G38   29.67F WCI  28
Toms River     LGT RAIN  40  38  93 NE29G40   29.71F WCI  29
Belmar         LGT RAIN  39  36  89 NE32G43   29.72F WCI  27
$$

PAZ047>061-062-071-231700-
EASTERN PENNSYLVANIA

CITY           SKY/WX    TMP DP  RH WIND       PRES   REMARKS
Philadelphia   LGT RAIN  40  36  86 NE22G39   29.66F FOG     WCI  30
Allentown      CLOUDY    41  31  67 E29G39    29.72F
Scranton       CLOUDY    38  32  79 E9        29.77R WCI  31
$$

CTZ002-004>006-009-010-012-RIZ004-006-007-MAZ004-011-015-231700-
SOUTHERN NEW ENGLAND
 IN CT

CITY           SKY/WX    TMP DP  RH WIND       PRES   REMARKS
Bradley INTL   FLURRIES  37  30  75 NE18      29.96F WCI  27
Hartford       CLOUDY    39  30  70 NE14G20   29.94F WCI  31
Danbury        CLOUDY    37  29  72 E16G30    29.89S WCI  28
Wtrbury/Oxford CLOUDY    36  28  75 E17G29    29.88F WCI  25
Bridgeport     CLOUDY    42  30  62 NE23G31   29.89F
Meriden        CLOUDY    40  29  64 NE10G30   29.92F WCI  33
New Haven      CLOUDY    40  29  64 NE15G26   29.90S WCI  32
Chester        CLOUDY    39  28  65 NE17G29   29.87F WCI  30
Groton         CLOUDY    41  29  62 E20G31    29.91F
Wilimantic     CLOUDY    39  32  76 NE16G25   29.93F WCI  30

 IN RI

CITY           SKY/WX    TMP DP  RH WIND       PRES   REMARKS
Providence     FLURRIES  38  31  76 E22G29    29.96F WCI  27
Block Island   NOT AVBL
Westerly       CLOUDY    41  28  60 E22G35    29.92F
 IN MA

CITY           SKY/WX    TMP DP  RH WIND       PRES   REMARKS
Boston         LGT SNOW  36  34  92 E21G33    30.04F FOG     WCI  25
Worcester      LGT SNOW  30  28  92 NE12G21   29.95F FOG     WCI  20
Westfield      CLOUDY    36  28  73 NE10      29.97F WCI  28
Provincetown   LGT RAIN  37  33  85 E17G31    30.02F WCI  27
Nantucket      CLOUDY    39  32  76 E22G33    29.92F WCI  29
$$

ANZ330-335-338-340-345-350-353-355-231700-
COASTAL MARINE OBSERVATIONS


STATION/POSITION TIME  SKY/WX   TEMP    WIND        PRES    VSBY  WAVE
                                AIR SEA DIR/SP/G                  HT/PER
                 (UTC)          (F)     (DEG/KT/KT) (MB)    (MI)  (FT/S)
NY HARB ENTRANCE 1450            41 42   60/ 33/ 41 1007.6         13/10
20 S FIRE ISLAND 1450            43 45   60/ 31/ 37 1007.5         15/ 9
GREAT SOUTH BAY  NOT AVBL
23 SSW MONTAUK P 1450            42 47   70/ 31/ 39 1010.5         13/ 8
15 E BARNEGAT LI 1530               47                N/A          17/10
HUDSON CANYON    1450            48 52              1004.9         17/10
KINGS POINT      1542            40 39              1010.8
EXECUTION ROCKS  1545            40      70/ 25/ 35   N/A
CENTRAL LI SOUND 1515            40      70/ 23/ 31   N/A           5/ 5
EASTERN LI SOUND NOT AVBL
ROBBINS REEF     1542            40      60/ 29/ 37 1009.9
$$


>>>>>>>>>>>>>>>>>>>>>>>>>>>> KEY <<<<<<<<<<<<<<<<<<<<<<<<<<<
>                                                          <
>     SKY/WX - Sky Condition/Present Weather               <
>     TMP    - Temperature in Fahrenheit                   <
>     DP     - Dew Point in Fahrenheit                     <
>     RH     - Relative Humidity in Percent                <
>     WIND   - Direction (from) and Speed in MPH           <
>     PRES   - Mean Sea Level Pressure (inches of Hg)      <
>     WCI    - Wind Chill Index                            <
>     VSB    - VISIBILITY IN MILES                         <
>     HX     - HEAT INDEX                                  <
>     TC     - TEMPERATURE IN CELSIUS                      <
>     VRB    - VARIABLE WIND DIRECTION                     <
>                                                          <
>>>>>>>>>>>>>>>>>>>>>>>>>>>> KEY <<<<<<<<<<<<<<<<<<<<<<<<<<<




USA.gov is the U.S. government's official web portal to all federal, state and local government web resources and services.